Home > Weather > Mesa > Past weeks

Flag for USA Weather for the Past 2 Weeks in Mesa, Arizona, USA

Now
70 °F

Passing clouds.


Feels Like: 70 °F
Forecast: 58 / 79 °F
Wind: No wind

Location: Williams Gateway Airport

Current Time: Apr 29, 2016 at 11:43:20 AM

Latest Report: Apr 29, 2016 at 10:47 AM


Visibility: 45 mi

Pressure: 29.91 "Hg

Humidity: 33%

Dew Point: 39 °F

Location of MesaLocation

Historic Weather in Mesa — Graph

°F

Mesa Temperature Yesterday

Maximum temperature yesterday: 73 °F (at 1:47 PM)
Minimum temperature yesterday: 55 °F (at 5:54 AM)
Average temperature yesterday: 65 °F

High & Low Weather Summary for the Past Weeks

 TemperatureHumidityPressure
High93 °F (Apr 21, 3:50 PM)93% (Apr 20, 8:47 AM)30.09 "Hg (Apr 20, 8:47 AM)
Low36 °F (Apr 20, 8:47 AM)5% (Apr 25, 4:53 PM)29.62 "Hg (Apr 15, 3:49 PM)
Average69 °F25%29.85 "Hg
* Reported Apr 14 9:47 AM — Apr 29 9:47 AM, Mesa, Weather by CustomWeather, © 2016

Note: Actual official high and low records may vary slightly from our data, if they occured in-between our weather recording intervals... More about our weather records

Advertising

Mesa Weather History for the Previous 24 Hours

Scroll right to see more
 ConditionsComfort  
Time TempWeatherWind HumidityBarometerVisibility
9:47 AM
Fri, Apr 29
66 °FScattered clouds.No wind37%29.92 "Hg20 mi
8:47 AM64 °FScattered clouds.5 mph73%29.91 "Hg45 mi
7:47 AM61 °FScattered clouds.7 mph39%29.90 "Hg35 mi
6:47 AM57 °FPartly sunny.8 mph44%29.88 "Hg30 mi
5:47 AM57 °FBroken clouds.8 mph44%29.86 "Hg20 mi
4:50 AM59 °FPartly cloudy.7 mph42%29.85 "Hg20 mi
4:15 AM59 °FOvercast.3 mph42%29.85 "Hg10 mi
3:55 AM59 °FPassing clouds.No wind42%29.84 "Hg10 mi
3:15 AM59 °FPassing clouds.8 mph42%29.83 "Hg10 mi
2:55 AM59 °FPassing clouds.9 mph42%29.83 "Hg10 mi
2:35 AM59 °FPassing clouds.9 mph42%29.82 "Hg10 mi
2:15 AM59 °FPassing clouds.8 mph42%29.82 "Hg10 mi
1:55 AM59 °FClear.9 mph42%29.82 "Hg10 mi
1:15 AM59 °FClear.8 mph42%29.82 "Hg10 mi
12:55 AM57 °FClear.9 mph44%29.82 "Hg10 mi
12:35 AM59 °FClear.7 mph42%29.82 "Hg10 mi
12:15 AM59 °FClear.6 mph42%29.82 "Hg10 mi
11:47 PM
Thu, Apr 28
61 °FPassing clouds.8 mph39%29.80 "Hg20 mi
10:47 PM63 °FPassing clouds.8 mph37%29.80 "Hg20 mi
9:50 PM63 °FPassing clouds.12 mph32%29.77 "Hg20 mi
8:51 PM64 °FPassing clouds.6 mph22%29.76 "Hg20 mi
7:47 PM68 °FPassing clouds.6 mph20%29.74 "Hg30 mi
6:47 PM70 °FPassing clouds.9 mph15%29.72 "Hg30 mi
5:47 PM72 °FScattered clouds.16 mph15%29.71 "Hg45 mi
3:56 PM73 °FScattered clouds.13 mph14%29.70 "Hg20 mi
2:48 PM73 °FScattered clouds.14 mph16%29.72 "Hg20 mi
1:47 PM73 °FScattered clouds.12 mph16%29.73 "Hg20 mi
12:47 PM72 °FScattered clouds.13 mph20%29.73 "Hg20 mi
11:50 AM70 °FPassing clouds.17 mph23%29.74 "Hg45 mi
Weather by CustomWeather, © 2016

See weather overviewHow to use our weather pages